Back to catalog

KUIPER-00538

AliveCommunicationsLEO
NORAD 69608·PAYLOAD·🇺🇸 United States

Launched Jun 17, 2026 from Guiana Space Centre

Loading…

Next Passes (next 24 hours)

TLE

FreshSource: CelesTrak SupGP

Epoch: Sep 14, 2026, 16:43 UTC

1 69608C 26140S   26257.69696759  .00156400  00000+0  20500-1 0  2571
2 69608  51.9027 342.3048 0000230 101.2466 112.0402 14.79721155    17

Track KUIPER-00538 in real time with AllMySat

Download on the App Store